This demonstration page uses our WeatherBlox Daily Observations layout. Learn more.

Left ArrowRight Arrow

Hourly Observations for May 2, 2015

Temp ( °F °C ) Dew Point ( °F °C ) Humidity (%) Winds ( mph kmh ) Pressure ( in mb ) Visibility ( mi km ) Precip ( " mm )
12:52 am 00:52 Clear 56 13.3 44 6.7 65 65 SE 7 11 30.00 1016 10 16 0.00 0.00
1:52 am 01:52 Clear 57 13.9 44 6.7 62 62 SSE 10 17 29.99 1016 10 16 0.00 0.00
2:52 am 02:52 Partly Cloudy 57 13.9 44 6.7 62 62 SSE 10 17 29.98 1015 10 16 0.00 0.00
3:52 am 03:52 Mostly Cloudy 58 14.4 44 6.7 60 60 SSE 10 17 29.96 1015 10 16 0.00 0.00
4:52 am 04:52 Cloudy 59 15 45 7.2 60 60 SSE 8 13 29.96 1014 10 16 0.00 0.00
5:52 am 05:52 Cloudy 58 14.4 46 7.8 65 65 SSE 10 17 29.94 1014 10 16 0.00 0.00
6:52 am 06:52 Cloudy 57 13.9 47 8.3 69 69 SSE 7 11 29.93 1014 10 16 0.00 0.00
7:46 am 07:46 Cloudy with Light Rain 61 16 54 12 77 77 SSE 6 9 29.94 1014 10 16 0.00 0.00
7:52 am 07:52 Cloudy with Thunderstorms 60 15.6 53 11.7 78 78 SSW 5 7 29.94 1014 10 16 0.00 0.03
8:19 am 08:19 Cloudy with Thunderstorms 59 15 56 13.3 90 90 SW 10 17 30.00 1016 3 4 0.17 4.32
8:38 am 08:38 Cloudy with Thunderstorms 61 16 57 14 88 88 SSE 8 13 29.97 1015 3 5 0.00 0.00
8:52 am 08:52 Cloudy with Thunderstorms 59 15 57 13.9 93 93 SE 9 15 29.96 1015 3 5 0.23 5.84
9:20 am 09:20 Cloudy 61 16 57 14 88 88 SSE 14 22 29.97 1015 10 16 0.00 0.00
9:52 am 09:52 Cloudy 60 15.6 57 13.9 90 90 S 14 22 29.95 1014 10 16 0.01 0.25
10:52 am 10:52 Cloudy 63 17.2 55 12.8 76 76 SSE 22 35 29.95 1014 10 16 0.00 0.00
11:52 am 11:52 Mostly Cloudy 64 17.8 54 12.2 70 70 SSE 24 39 29.93 1014 10 16 0.00 0.00
12:52 pm 12:52 Mostly Cloudy 66 18.9 54 12.2 65 65 SSE 20 31 29.91 1013 10 16 0.00 0.00
1:52 pm 13:52 Partly Cloudy 69 20.6 55 12.8 61 61 S 18 30 29.88 1012 10 16 0.00 0.00
2:52 pm 14:52 Mostly Sunny 71 21.7 53 11.7 53 53 S 23 37 29.87 1011 10 16 0.00 0.00
3:52 pm 15:52 Mostly Sunny 71 21.7 55 12.8 57 57 SSE 24 39 29.83 1010 10 16 0.00 0.00
4:52 pm 16:52 Mostly Sunny 72 22.2 56 13.3 57 57 SSE 21 33 29.81 1009 10 16 0.00 0.00
5:52 pm 17:52 Sunny 72 22.2 57 13.9 59 59 SSE 21 33 29.79 1009 10 16 0.00 0.00
6:52 pm 18:52 Sunny 72 22.2 57 13.9 59 59 SE 20 31 29.77 1008 10 16 0.00 0.00
7:52 pm 19:52 Partly Cloudy 68 20 57 13.9 68 68 SE 18 30 29.76 1008 10 16 0.00 0.00
8:52 pm 20:52 Mostly Cloudy 68 20 57 13.9 68 68 SE 21 33 29.75 1007 10 16 0.00 0.00
9:52 pm 21:52 Mostly Cloudy 67 19.4 57 13.9 71 71 SE 16 26 29.75 1007 10 16 0.00 0.00
10:52 pm 22:52 Cloudy 69 20.6 54 12.2 59 59 SSE 16 26 29.76 1008 10 16 0.00 0.00
11:19 pm 23:19 Cloudy with Thunderstorms 70 21.1 54 12.2 57 57 NW 12 19 29.80 1009 10 16 0.00 0.00
11:48 pm 23:48 Cloudy with Thunderstorms 64 18 59 15 83 83 WSW 12 19 29.80 1009 4 6 0.00 0.00
11:52 pm 23:52 Cloudy with Thunderstorms 65 18.3 59 15 81 81 SW 10 17 29.83 1010 5 8 0.09 2.29

Powered by AerisWeather